This demonstration page uses our WeatherBlox Daily Observations layout. Learn more.

Left ArrowRight Arrow

Hourly Observations for December 18, 2017

Temp ( °F °C ) Dew Point ( °F °C ) Humidity (%) Winds ( mph kmh ) Pressure ( in mb ) Visibility ( mi km ) Precip ( " mm )
12:53 am 00:53 Clear 45 7.2 38 3.3 77 77 ESE 6 9 29.96 1015 10 16 0.00 0.00
1:53 am 01:53 Clear 40 4.4 36 2.2 86 86 E 6 9 29.97 1015 10 16 0.00 0.00
2:53 am 02:53 Clear 38 3.3 35 1.7 89 89 N 6 9 29.99 1016 10 16 0.00 0.00
3:53 am 03:53 Clear 38 3.3 35 1.7 89 89 N 9 15 29.98 1015 10 16 0.00 0.00
4:53 am 04:53 Clear 37 2.8 34 1.1 89 89 NE 6 9 29.99 1016 10 16 0.00 0.00
5:53 am 05:53 Clear 36 2.2 35 1.7 97 97 N 5 7 30.01 1016 10 16 0.00 0.00
6:53 am 06:53 Clear 34 1.1 33 0.6 97 97 NNE 6 9 30.03 1017 10 16 0.00 0.00
7:53 am 07:53 Sunny 34 1.1 33 0.6 97 97 NNE 6 9 30.06 1018 10 16 0.00 0.00
8:53 am 08:53 Sunny 41 5 37 2.8 86 86 NNW 3 6 30.08 1019 10 16 0.00 0.00
9:53 am 09:53 Mostly Sunny 46 7.8 38 3.3 73 73 Calm 30.09 1019 10 16 0.00 0.00
10:53 am 10:53 Sunny 51 10.6 40 4.4 66 66 Calm 30.09 1019 10 16 0.00 0.00
11:53 am 11:53 Mostly Cloudy 53 11.7 41 5 64 64 Calm 30.08 1019 10 16 0.00 0.00
12:53 pm 12:53 Cloudy 57 13.9 41 5 55 55 S 5 7 30.04 1017 10 16 0.00 0.00
1:53 pm 13:53 Sunny 61 16.1 40 4.4 46 46 WSW 6 9 30.02 1017 10 16 0.00 0.00
2:53 pm 14:53 Sunny 64 17.8 38 3.3 38 38 W 3 6 29.99 1016 10 16 0.00 0.00
3:53 pm 15:53 Sunny 65 18.3 37 2.8 36 36 SSW 5 7 29.98 1015 10 16 0.00 0.00
4:53 pm 16:53 Sunny 65 18.3 36 2.2 34 34 WSW 6 9 30.00 1016 10 16 0.00 0.00
5:53 pm 17:53 Clear 61 16.1 36 2.2 39 39 Calm 30.01 1016 10 16 0.00 0.00
6:53 pm 18:53 Clear 54 12.2 36 2.2 51 51 Calm 30.05 1018 10 16 0.00 0.00
7:53 pm 19:53 Clear 50 10 38 3.3 63 63 SE 7 11 30.06 1018 10 16 0.00 0.00
8:53 pm 20:53 Clear 46 7.8 38 3.3 73 73 SE 3 6 30.06 1018 10 16 0.00 0.00
9:53 pm 21:53 Clear 45 7.2 39 3.9 80 80 S 6 9 30.06 1018 10 16 0.00 0.00
10:53 pm 22:53 Clear 40 4.4 37 2.8 89 89 NW 5 7 30.06 1018 10 16 0.00 0.00
11:53 pm 23:53 Clear 43 6.1 40 4.4 89 89 ESE 6 9 30.07 1018 10 16 0.00 0.00

Powered by AerisWeather